Flag for Algeria Weather past 2 weeks in Oran, Algeria

Now
63 °F

Scattered clouds.


Feels Like: 63 °F
Forecast: 50 / 62 °F
Wind: 25 mph from West

Location: Oran / Es Senia

Current Time: Feb 27, 2015 at 12:58:58 PM

Latest Report: Feb 27, 2015 at 12:30 PM


Visibility: N/A

Pressure: 30.15 "Hg

Humidity: 68%

Dew point: 52 °F

Location of OranLocation

Historic Weather in Oran — Graph

°F

Oran temperature yesterday

Maximum temperature yesterday: 68 °F (at 4:00 PM)
Minimum temperature yesterday: 50 °F (at 12:00 AM)
Average temperature yesterday: 60 °F

Past Weeks' High & Low Weather Summary

 TemperatureHumidityPressure
High68 °F (Feb 26, 4:00 PM)100% (Feb 13, 7:00 AM)30.33 "Hg (Feb 13, 7:00 AM)
Low46 °F (Feb 14, 12:00 AM)34% (Feb 25, 11:00 AM)29.74 "Hg (Feb 21, 6:30 PM)
Average56 °F79%30.12 "Hg
* Reported Feb 12 11:00 AM — Feb 27 11:30 AM, Oran, Weather by CustomWeather, © 2015

Note: Actual official high and low records may vary slightly from our data, if they occured in-between our weather recording intervals... More about our weather records

Advertising

Oran weather history for previous 24 hours

 ConditionsComfort  
Time TempWeatherWind HumidityBarometerVisibility
11:30 AM
Fri, Feb 27
61 °FBroken clouds.24 mph72%30.15 "HgN/A
11:00 AM61 °FBroken clouds.23 mph72%30.15 "HgN/A
10:30 AM59 °FBroken clouds.23 mph77%30.15 "HgN/A
10:00 AM59 °FBroken clouds.21 mph77%30.15 "HgN/A
9:30 AM59 °FBroken clouds.20 mph82%30.12 "HgN/A
9:00 AM59 °FPartly sunny.21 mph82%30.12 "HgN/A
8:30 AM57 °FPartly sunny.18 mph82%30.12 "HgN/A
8:00 AM57 °FScattered clouds.16 mph82%30.12 "HgN/A
7:30 AM57 °FScattered clouds.17 mph82%30.09 "HgN/A
7:00 AM57 °FPassing clouds.18 mph82%30.09 "HgN/A
6:30 AM57 °FPassing clouds.17 mph82%30.12 "HgN/A
6:00 AM57 °FPassing clouds.18 mph82%30.12 "HgN/A
5:30 AM55 °FPassing clouds.18 mph88%30.12 "HgN/A
4:00 AM55 °FPassing clouds.8 mph88%30.12 "HgN/A
2:30 AM57 °FPassing clouds.13 mph82%30.12 "HgN/A
2:00 AM57 °FPassing clouds.16 mph82%30.12 "HgN/A
1:30 AM57 °FPassing clouds.17 mph82%30.12 "HgN/A
1:00 AM57 °FPassing clouds.14 mph82%30.12 "HgN/A
12:30 AM55 °FPassing clouds.13 mph88%30.12 "HgN/A
12:00 AM55 °FPassing clouds.9 mph88%30.12 "HgN/A
11:30 PM
Thu, Feb 26
55 °FPassing clouds.12 mph88%30.15 "HgN/A
11:00 PM55 °FPassing clouds.14 mph88%30.15 "HgN/A
10:30 PM55 °FPassing clouds.16 mph88%30.15 "HgN/A
10:00 PM57 °FPassing clouds.12 mph82%30.15 "HgN/A
9:30 PM57 °FPassing clouds.14 mph88%30.15 "HgN/A
9:00 PM57 °FPassing clouds.14 mph88%30.15 "HgN/A
8:30 PM55 °FPassing clouds.18 mph88%30.15 "HgN/A
8:00 PM55 °FPassing clouds.12 mph88%30.15 "HgN/A
7:30 PM57 °FPassing clouds.10 mph82%30.15 "HgN/A
7:00 PM59 °FPassing clouds.12 mph77%30.15 "HgN/A
6:30 PM61 °FPassing clouds.13 mph77%30.15 "HgN/A
6:00 PM63 °FPassing clouds.16 mph73%30.15 "HgN/A
5:30 PM63 °FPassing clouds.16 mph64%30.15 "HgN/A
5:00 PM64 °FPassing clouds.17 mph60%30.15 "HgN/A
4:30 PM66 °FScattered clouds.9 mph56%30.15 "HgN/A
4:00 PM68 °FScattered clouds.9 mph53%30.15 "HgN/A
3:30 PM64 °FScattered clouds.12 mph56%30.15 "HgN/A
3:00 PM64 °FScattered clouds.7 mph56%30.15 "HgN/A
2:30 PM64 °FScattered clouds.7 mph52%30.15 "HgN/A
2:00 PM64 °FScattered clouds.7 mph52%30.18 "HgN/A
1:00 PM66 °FScattered clouds.8 mph46%30.18 "HgN/A
12:30 PM66 °FScattered clouds.8 mph46%30.18 "HgN/A
12:00 PM63 °FScattered clouds.8 mph52%30.21 "HgN/A
Weather by CustomWeather, © 2015

See weather overviewHow to use our weather pages